Location: Alsip
(41.6689°N, 87.7387°W)
Time: 13:48:22
(UTC+00:00)

BREEZE M DEB (TANK) - Pass Details

Date: 14 July 2020
Orbit: 285 x 14546 km, 49.5° (Epoch: 05 August)

Event Time Altitude Azimuth Distance (km) Brightness Sun altitude
Rises 02:23:54 0° 300° (WNW) 3,133 8.7 -9.8°
Reaches altitude 10° 02:26:56 10° 305° (NW) 1,560 6.7 -10.2°
Maximum altitude 02:29:42 51° 25° (NNE) 392 2.2 -10.6°
Enters shadow 02:31:05 17° 99° (E) 830 3.3 -10.8°
